Tracking 19905 objects as of 18-Oct-2019
HD Live streaming from Space Station
objects crossing your sky now

SL-23 DEB

Track SL-23 DEB now!


NORAD ID: 35577
Int'l Code: 2009-009C
Perigee: 1,216.5 km
Apogee: 35,908.7 km
Inclination: 34.6 °
Period: 653.0 minutes
Semi major axis: 24933 km
RCS: 0.1999 m2 (medium)
Launch date: February 26, 2009
Source: Commonwealth of Independent States (former USSR) (CIS)
Launch site: TYURATAM MISSILE AND SPACE COMPLEX (TTMTR)

Note: This is SATELLITE DEBRIS
aabbcc
Your satellite tracking list
Your tracking list is empty




NASA's NSSDC Master Catalog

Two Line Element Set (TLE):
1 35577U 09009C   18313.26490104 -.00000027 +00000-0 +00000-0 0  9997
2 35577 034.6379 260.0238 6956919 217.2549 350.7925 02.20508344076605
Source of the keplerian elements: AFSPC